GAD MUNICIPALIDAD DE AMBATO,,,
Reporte Solmaforo desde 01/09/2021 hasta 30/09/2021,,,
C�digo,Fecha,IUV,IUV Completo
2138576,01/09/2021 05:00:29,0,0
2138578,01/09/2021 05:01:29,0,0
2138580,01/09/2021 05:02:29,0,0
2138582,01/09/2021 05:03:29,0,0
2138584,01/09/2021 05:04:29,0,0
2138586,01/09/2021 05:05:29,0,0
2138589,01/09/2021 05:07:29,0,0
2138591,01/09/2021 05:08:29,0,0
2138593,01/09/2021 05:09:29,0,0
2138595,01/09/2021 05:10:29,0,0
2138597,01/09/2021 05:11:29,0,0
2138599,01/09/2021 05:12:29,0,0
2138602,01/09/2021 05:14:29,0,0
2138604,01/09/2021 05:15:29,0,0
2138606,01/09/2021 05:16:29,0,0
2138608,01/09/2021 05:17:29,0,0
2138610,01/09/2021 05:18:29,0,0
2138612,01/09/2021 05:19:29,0,0
2138615,01/09/2021 05:21:29,0,0
2138617,01/09/2021 05:22:29,0,0
2138619,01/09/2021 05:23:29,0,0
2138621,01/09/2021 05:24:29,0,0
2138623,01/09/2021 05:25:29,0,0
2138625,01/09/2021 05:26:29,0,0
2138628,01/09/2021 05:28:29,0,0
2138630,01/09/2021 05:29:29,0,0
2138632,01/09/2021 05:30:29,0,0
2138634,01/09/2021 05:31:29,0,0
2138636,01/09/2021 05:32:29,0,0
2138638,01/09/2021 05:33:29,0,0
2138641,01/09/2021 05:35:29,0,0
2138643,01/09/2021 05:36:29,0,0
2138645,01/09/2021 05:37:29,0,0
2138647,01/09/2021 05:38:29,0,0
2138649,01/09/2021 05:39:29,0,0
2138651,01/09/2021 05:40:29,0,0
2138654,01/09/2021 05:42:29,0,0
2138656,01/09/2021 05:43:29,0,0
2138658,01/09/2021 05:44:29,0,0
2138660,01/09/2021 05:45:29,0,0
2138662,01/09/2021 05:46:29,0,0
2138664,01/09/2021 05:47:29,0,0
2138667,01/09/2021 05:49:29,0,0
2138669,01/09/2021 05:50:29,0,0
2138671,01/09/2021 05:51:29,0,0
2138673,01/09/2021 05:52:29,0,0
2138675,01/09/2021 05:53:29,0,0
2138677,01/09/2021 05:54:29,0,0.0004
2138680,01/09/2021 05:56:29,0,0.0004
2138682,01/09/2021 05:57:29,0,0.0008
2138684,01/09/2021 05:58:29,0,0.0012
2138686,01/09/2021 05:59:29,0,0.0016
2138688,01/09/2021 06:00:29,0,0.002
2138690,01/09/2021 06:01:29,0,0.0028
2138693,01/09/2021 06:03:29,0,0.004
2138695,01/09/2021 06:04:29,0,0.0052
2138697,01/09/2021 06:05:29,0,0.0064
2138699,01/09/2021 06:06:29,0,0.0076
2138701,01/09/2021 06:07:29,0,0.0096
2138703,01/09/2021 06:08:29,0,0.0112
2138706,01/09/2021 06:10:29,0,0.0156
2138708,01/09/2021 06:11:29,0,0.0168
2138710,01/09/2021 06:12:29,0,0.018
2138712,01/09/2021 06:13:29,0,0.0192
2138714,01/09/2021 06:14:29,0,0.0212
2138716,01/09/2021 06:15:29,0,0.024
2138719,01/09/2021 06:17:29,0,0.0312
2138721,01/09/2021 06:18:29,0,0.0348
2138723,01/09/2021 06:19:29,0,0.0384
2138725,01/09/2021 06:20:29,0,0.0428
2138727,01/09/2021 06:21:29,0,0.0464
2138729,01/09/2021 06:22:29,0,0.0496
2138732,01/09/2021 06:24:29,0,0.0544
2138734,01/09/2021 06:25:29,0,0.0564
2138736,01/09/2021 06:26:29,0,0.0588
2138738,01/09/2021 06:27:29,0,0.06
2138740,01/09/2021 06:28:29,0,0.0608
2138742,01/09/2021 06:29:29,0,0.0628
2138745,01/09/2021 06:31:29,0,0.0696
2138747,01/09/2021 06:32:29,0,0.0756
2138749,01/09/2021 06:33:29,0,0.0828
2138751,01/09/2021 06:34:29,0,0.0916
2138753,01/09/2021 06:35:29,0,0.1028
2138755,01/09/2021 06:36:29,0,0.1188
2138758,01/09/2021 06:38:29,0,0.1568
2138760,01/09/2021 06:39:29,0,0.174
2138762,01/09/2021 06:40:29,0,0.1816
2138764,01/09/2021 06:41:29,0,0.1808
2138766,01/09/2021 06:42:29,0,0.1796
2138768,01/09/2021 06:43:29,0,0.1764
2138771,01/09/2021 06:45:29,0,0.1632
2138773,01/09/2021 06:46:29,0,0.16
2138775,01/09/2021 06:47:29,0,0.158
2138777,01/09/2021 06:48:29,0,0.1556
2138779,01/09/2021 06:49:29,0,0.1564
2138781,01/09/2021 06:50:29,0,0.1628
2138784,01/09/2021 06:52:29,0,0.1916
2138786,01/09/2021 06:53:29,0,0.2088
2138788,01/09/2021 06:54:29,0,0.2224
2138790,01/09/2021 06:55:29,0,0.2372
2138792,01/09/2021 06:56:29,0,0.2496
2138794,01/09/2021 06:57:29,0,0.2652
2138797,01/09/2021 06:59:29,0,0.2952
2138799,01/09/2021 07:00:29,0,0.3164
2138801,01/09/2021 07:01:29,0,0.3368
2138803,01/09/2021 07:02:29,0,0.3584
2138805,01/09/2021 07:03:29,0,0.3756
2138807,01/09/2021 07:04:29,0,0.3956
2138810,01/09/2021 07:06:29,0,0.45
2138812,01/09/2021 07:07:29,0,0.4612
2138814,01/09/2021 07:08:29,0,0.4548
2138816,01/09/2021 07:09:29,0,0.4624
2138818,01/09/2021 07:10:29,0,0.4592
2138820,01/09/2021 07:11:29,0,0.4532
2138823,01/09/2021 07:13:29,0,0.4476
2138825,01/09/2021 07:14:29,0,0.4472
2138827,01/09/2021 07:15:29,0,0.4516
2138829,01/09/2021 07:16:29,0,0.4588
2138831,01/09/2021 07:17:29,0,0.4664
2138833,01/09/2021 07:18:29,0,0.4736
2138836,01/09/2021 07:20:29,0,0.4904
2138838,01/09/2021 07:21:29,0,0.4924
2138840,01/09/2021 07:22:29,0,0.4792
2138842,01/09/2021 07:23:29,0,0.4624
2138844,01/09/2021 07:24:29,0,0.4616
2138846,01/09/2021 07:25:29,0,0.4852
2138849,01/09/2021 07:27:29,1,0.602
2138851,01/09/2021 07:28:29,1,0.6792
2138853,01/09/2021 07:29:29,1,0.738
2138855,01/09/2021 07:30:29,1,0.7908
2138857,01/09/2021 07:31:29,1,0.8084
2138859,01/09/2021 07:32:29,1,0.8068
2138862,01/09/2021 07:34:29,1,0.7784
2138864,01/09/2021 07:35:29,1,0.7948
2138866,01/09/2021 07:36:29,1,0.8264
2138868,01/09/2021 07:37:29,1,0.86
2138870,01/09/2021 07:38:29,1,0.8872
2138872,01/09/2021 07:39:29,1,0.9068
2138875,01/09/2021 07:41:29,1,0.8632
2138877,01/09/2021 07:42:29,1,0.8192
2138879,01/09/2021 07:43:29,1,0.784
2138881,01/09/2021 07:44:29,1,0.7572
2138883,01/09/2021 07:45:29,1,0.7284
2138885,01/09/2021 07:46:29,1,0.7076
2138888,01/09/2021 07:48:29,1,0.7484
2138890,01/09/2021 07:49:29,1,0.7524
2138892,01/09/2021 07:50:29,1,0.7648
2138894,01/09/2021 07:51:29,1,0.8332
2138896,01/09/2021 07:52:29,1,0.8952
2138898,01/09/2021 07:53:29,1,0.952
2138901,01/09/2021 07:55:29,1,0.968
2138903,01/09/2021 07:56:29,1,0.982
2138905,01/09/2021 07:57:29,1,1.2484
2138907,01/09/2021 07:58:29,2,1.9508
2138909,01/09/2021 07:59:29,2,2.276
2138911,01/09/2021 08:00:29,3,2.6552
2138914,01/09/2021 08:02:29,2,2.1528
2138916,01/09/2021 08:03:29,2,1.9416
2138918,01/09/2021 08:04:29,2,1.6628
2138920,01/09/2021 08:05:29,2,1.6228
2138922,01/09/2021 08:06:29,1,1.4224
2138924,01/09/2021 08:07:29,1,1.3208
2138927,01/09/2021 08:09:29,1,1.1964
2138929,01/09/2021 08:10:29,1,1.2288
2138931,01/09/2021 08:11:29,1,1.1712
2138933,01/09/2021 08:12:29,1,1.2184
2138935,01/09/2021 08:13:29,2,1.5088
2138937,01/09/2021 08:14:29,2,1.8048
2138940,01/09/2021 08:16:29,3,3.4292
2138942,01/09/2021 08:17:29,2,2.1092
2138944,01/09/2021 08:18:29,2,1.9288
2138946,01/09/2021 08:19:29,2,2.0852
2138948,01/09/2021 08:20:29,3,2.6696
2138950,01/09/2021 08:21:29,4,4.0352
2138953,01/09/2021 08:23:29,2,1.918
2138955,01/09/2021 08:24:29,3,2.7148
2138957,01/09/2021 08:25:29,3,3.1436
2138959,01/09/2021 08:26:29,3,2.6848
2138961,01/09/2021 08:27:29,4,3.6828
2138963,01/09/2021 08:28:29,4,3.9416
2138966,01/09/2021 08:30:29,2,2.018
2138968,01/09/2021 08:31:29,2,1.8336
2138970,01/09/2021 08:32:29,2,1.9496
2138972,01/09/2021 08:33:29,4,3.7172
2138974,01/09/2021 08:34:29,3,3.478
2138976,01/09/2021 08:35:29,3,2.7312
2138979,01/09/2021 08:37:29,2,1.7072
2138981,01/09/2021 08:38:29,1,1.456
2138983,01/09/2021 08:39:29,1,1.3216
2138985,01/09/2021 08:40:29,1,1.2928
2138987,01/09/2021 08:41:29,1,1.2816
2138989,01/09/2021 08:42:29,1,1.2988
2138992,01/09/2021 08:44:29,1,1.4368
2138994,01/09/2021 08:45:29,1,1.4384
2138996,01/09/2021 08:46:29,2,1.5328
2138998,01/09/2021 08:47:29,2,1.6476
2139000,01/09/2021 08:48:29,2,1.7988
2139002,01/09/2021 08:49:29,2,1.8588
2139005,01/09/2021 08:51:29,2,2.0848
2139007,01/09/2021 08:52:29,2,2.2136
2139009,01/09/2021 08:53:29,3,2.5376
2139011,01/09/2021 08:54:29,2,2.3204
2139013,01/09/2021 08:55:29,2,2.2008
2139015,01/09/2021 08:56:29,2,2.1808
2139018,01/09/2021 08:58:29,2,2.2028
2139020,01/09/2021 08:59:29,2,2.2504
2139022,01/09/2021 09:00:29,2,2.2524
2139024,01/09/2021 09:01:29,2,2.3076
2139026,01/09/2021 09:02:29,2,2.3516
2139028,01/09/2021 09:03:29,3,2.5268
2139031,01/09/2021 09:05:29,2,2.4672
2139033,01/09/2021 09:06:29,2,2.3584
2139035,01/09/2021 09:07:29,2,2.4148
2139037,01/09/2021 09:08:29,3,2.5536
2139039,01/09/2021 09:09:29,3,2.5516
2139041,01/09/2021 09:10:29,2,2.4704
2139044,01/09/2021 09:12:29,2,2.3944
2139046,01/09/2021 09:13:29,2,2.3588
2139048,01/09/2021 09:14:29,2,2.404
2139050,01/09/2021 09:15:29,2,2.3312
2139052,01/09/2021 09:16:29,2,2.2988
2139054,01/09/2021 09:17:29,2,2.338
2139057,01/09/2021 09:19:29,3,2.5908
2139059,01/09/2021 09:20:29,4,3.916
2139061,01/09/2021 09:21:29,3,2.924
2139063,01/09/2021 09:22:29,3,2.862
2139065,01/09/2021 09:23:29,3,2.9424
2139067,01/09/2021 09:24:29,3,3.146
2139070,01/09/2021 09:26:29,3,3.3336
2139072,01/09/2021 09:27:29,3,3.2356
2139074,01/09/2021 09:28:29,4,3.8156
2139076,01/09/2021 09:29:29,5,5.3028
2139078,01/09/2021 09:30:29,6,5.5156
2139080,01/09/2021 09:31:29,5,4.6512
2139083,01/09/2021 09:33:29,5,5.3212
2139085,01/09/2021 09:34:29,5,5.026
2139087,01/09/2021 09:35:29,6,6.2504
2139089,01/09/2021 09:36:29,6,6.3124
2139091,01/09/2021 09:37:29,7,6.5724
2139093,01/09/2021 09:38:29,7,7.3052
2139096,01/09/2021 09:40:29,6,6.3768
2139098,01/09/2021 09:41:29,6,5.7216
2139100,01/09/2021 09:42:29,6,6.4756
2139102,01/09/2021 09:43:29,6,6.1456
2139104,01/09/2021 09:44:29,7,7.0668
2139106,01/09/2021 09:45:29,7,6.5292
2139109,01/09/2021 09:47:29,5,5.4828
2139111,01/09/2021 09:48:29,5,5.3432
2139113,01/09/2021 09:49:29,4,4.198
2139115,01/09/2021 09:50:29,5,4.58
2139117,01/09/2021 09:51:29,3,2.882
2139119,01/09/2021 09:52:29,3,2.8764
2139122,01/09/2021 09:54:29,3,3.4724
2139124,01/09/2021 09:55:29,4,3.7336
2139126,01/09/2021 09:56:29,4,4.1852
2139128,01/09/2021 09:57:29,8,7.604
2139130,01/09/2021 09:58:29,6,5.8032
2139132,01/09/2021 09:59:29,5,4.7188
2139135,01/09/2021 10:01:29,3,3.3608
2139137,01/09/2021 10:02:29,4,4.1056
2139139,01/09/2021 10:03:29,5,5.396
2139141,01/09/2021 10:04:29,6,5.7392
2139143,01/09/2021 10:05:29,5,4.802
2139145,01/09/2021 10:06:29,4,3.9668
2139148,01/09/2021 10:08:29,4,4.2308
2139150,01/09/2021 10:09:29,4,4.4172
2139152,01/09/2021 10:10:29,3,3.4668
2139154,01/09/2021 10:11:29,3,3.2604
2139156,01/09/2021 10:12:29,3,3.314
2139158,01/09/2021 10:13:29,5,5.0432
2139161,01/09/2021 10:15:29,5,4.8544
2139163,01/09/2021 10:16:29,4,4.1972
2139165,01/09/2021 10:17:29,4,4.3956
2139167,01/09/2021 10:18:29,5,5.434
2139169,01/09/2021 10:19:29,6,5.8004
2139171,01/09/2021 10:20:29,5,5.342
2139174,01/09/2021 10:22:29,5,5.25
2139176,01/09/2021 10:23:29,3,3.3048
2139178,01/09/2021 10:24:29,3,2.9836
2139180,01/09/2021 10:25:29,3,3.3568
2139182,01/09/2021 10:26:29,4,3.9084
2139184,01/09/2021 10:27:29,4,3.8744
2139187,01/09/2021 10:29:29,5,4.818
2139189,01/09/2021 10:30:29,5,5.27
2139191,01/09/2021 10:31:29,7,6.7596
2139193,01/09/2021 10:32:29,8,7.9168
2139195,01/09/2021 10:33:29,8,7.5508
2139197,01/09/2021 10:34:29,8,7.7124
2139200,01/09/2021 10:36:29,8,7.8768
2139202,01/09/2021 10:37:29,8,8.0788
2139204,01/09/2021 10:38:29,8,8.1248
2139206,01/09/2021 10:39:29,8,7.9308
2139208,01/09/2021 10:40:29,8,7.5976
2139210,01/09/2021 10:41:29,8,8.0556
2139213,01/09/2021 10:43:29,8,7.7472
2139215,01/09/2021 10:44:29,7,7.4276
2139217,01/09/2021 10:45:29,8,7.5932
2139219,01/09/2021 10:46:29,8,8.152
2139221,01/09/2021 10:47:29,8,8.3532
2139223,01/09/2021 10:48:29,8,8.0052
2139226,01/09/2021 10:50:29,8,8.1864
2139228,01/09/2021 10:51:29,8,8.3056
2139230,01/09/2021 10:52:29,8,8.1212
2139232,01/09/2021 10:53:29,8,8.1144
2139234,01/09/2021 10:54:29,8,8.278
2139236,01/09/2021 10:55:29,8,8.4956
2139239,01/09/2021 10:57:29,8,8.4684
2139241,01/09/2021 10:58:29,7,7.2004
2139243,01/09/2021 10:59:29,8,8.464
2139245,01/09/2021 11:00:29,9,8.5248
2139247,01/09/2021 11:01:29,9,8.5344
2139249,01/09/2021 11:02:29,9,8.5136
2139252,01/09/2021 11:04:29,8,8.3688
2139254,01/09/2021 11:05:29,8,7.908
2139256,01/09/2021 11:06:29,8,8.136
2139258,01/09/2021 11:07:29,8,8.396
2139260,01/09/2021 11:08:29,9,8.6188
2139262,01/09/2021 11:09:29,9,8.6688
2139265,01/09/2021 11:11:29,9,8.8176
2139267,01/09/2021 11:12:29,8,7.5288
2139269,01/09/2021 11:13:29,8,7.5536
2139271,01/09/2021 11:14:29,8,8.2044
2139273,01/09/2021 11:15:29,8,7.984
2139275,01/09/2021 11:16:29,8,8.1924
2139278,01/09/2021 11:18:29,9,9.1212
2139280,01/09/2021 11:19:29,9,8.8588
2139282,01/09/2021 11:20:29,8,8.1004
2139284,01/09/2021 11:21:29,9,9.1168
2139286,01/09/2021 11:22:29,8,7.9804
2139288,01/09/2021 11:23:29,8,8.1812
2139291,01/09/2021 11:25:29,7,7.0744
2139293,01/09/2021 11:26:29,8,7.634
2139295,01/09/2021 11:27:29,8,7.8488
2139297,01/09/2021 11:28:29,7,6.9112
2139299,01/09/2021 11:29:29,7,7.424
2139301,01/09/2021 11:30:29,6,6.2016
2139304,01/09/2021 11:32:29,7,6.516
2139306,01/09/2021 11:33:29,6,5.7264
2139308,01/09/2021 11:34:29,6,6.182
2139310,01/09/2021 11:35:29,7,6.5336
2139312,01/09/2021 11:36:29,7,6.5924
2139314,01/09/2021 11:37:29,6,6.4692
2139317,01/09/2021 11:39:29,6,5.7612
2139319,01/09/2021 11:40:29,6,5.6024
2139321,01/09/2021 11:41:29,5,5.2396
2139323,01/09/2021 11:42:29,5,5.1448
2139325,01/09/2021 11:43:29,5,4.936
2139327,01/09/2021 11:44:29,5,4.5172
2139330,01/09/2021 11:46:29,4,4.4332
2139332,01/09/2021 11:47:29,4,4.0308
2139334,01/09/2021 11:48:29,4,4.1432
2139336,01/09/2021 11:49:29,4,3.97
2139338,01/09/2021 11:50:29,4,3.764
2139340,01/09/2021 11:51:29,4,3.7976
2139343,01/09/2021 11:53:29,4,3.594
2139345,01/09/2021 11:54:29,4,3.5832
2139347,01/09/2021 11:55:29,4,3.632
2139349,01/09/2021 11:56:29,4,3.6364
2139351,01/09/2021 11:57:29,4,3.598
2139353,01/09/2021 11:58:29,4,3.5844
2139356,01/09/2021 12:00:29,3,3.3828
2139358,01/09/2021 12:01:29,3,3.4456
2139360,01/09/2021 12:02:29,4,3.646
2139362,01/09/2021 12:03:29,4,4.0024
2139364,01/09/2021 12:04:29,4,4.1372
2139366,01/09/2021 12:05:29,4,4.294
2139369,01/09/2021 12:07:29,3,3.3128
2139371,01/09/2021 12:08:29,3,3.4912
2139373,01/09/2021 12:09:29,4,3.9512
2139375,01/09/2021 12:10:29,4,4.4072
2139377,01/09/2021 12:11:29,4,3.6096
2139379,01/09/2021 12:12:29,3,3.1336
2139382,01/09/2021 12:14:29,3,2.7476
2139384,01/09/2021 12:15:29,3,2.7844
2139386,01/09/2021 12:16:29,3,2.7444
2139388,01/09/2021 12:17:29,3,2.6592
2139390,01/09/2021 12:18:29,3,2.5956
2139392,01/09/2021 12:19:29,3,2.5328
2139395,01/09/2021 12:21:29,3,2.5932
2139397,01/09/2021 12:22:29,3,3.0072
2139399,01/09/2021 12:23:29,3,3.1856
2139401,01/09/2021 12:24:29,3,3.1088
2139403,01/09/2021 12:25:29,3,2.9692
2139405,01/09/2021 12:26:29,3,2.8816
2139408,01/09/2021 12:28:29,3,2.8552
2139410,01/09/2021 12:29:29,3,2.6944
2139412,01/09/2021 12:30:29,3,2.508
2139414,01/09/2021 12:31:29,2,2.3872
2139416,01/09/2021 12:32:29,2,2.3436
2139418,01/09/2021 12:33:29,2,2.3848
2139421,01/09/2021 12:35:29,3,2.7176
2139423,01/09/2021 12:36:29,3,3.0588
2139425,01/09/2021 12:37:29,3,3.3104
2139427,01/09/2021 12:38:29,3,3.1428
2139429,01/09/2021 12:39:29,3,2.7188
2139431,01/09/2021 12:40:29,3,2.5212
2139434,01/09/2021 12:42:29,3,2.642
2139436,01/09/2021 12:43:29,3,2.7036
2139438,01/09/2021 12:44:29,3,2.7688
2139440,01/09/2021 12:45:29,3,2.7356
2139442,01/09/2021 12:46:29,3,2.6252
2139444,01/09/2021 12:47:29,2,2.3904
2139447,01/09/2021 12:49:29,2,1.95
2139449,01/09/2021 12:50:29,2,1.8664
2139451,01/09/2021 12:51:29,2,1.8564
2139453,01/09/2021 12:52:29,2,1.982
2139455,01/09/2021 12:53:29,2,2.1968
2139457,01/09/2021 12:54:29,2,2.4088
2139460,01/09/2021 12:56:29,3,2.5324
2139462,01/09/2021 12:57:29,3,2.6592
2139464,01/09/2021 12:58:29,3,2.7984
2139466,01/09/2021 12:59:29,3,2.8924
2139468,01/09/2021 13:00:29,3,2.958
2139470,01/09/2021 13:01:29,3,2.9376
2139473,01/09/2021 13:03:29,3,2.736
2139475,01/09/2021 13:04:29,3,2.7252
2139477,01/09/2021 13:05:29,3,2.5724
2139479,01/09/2021 13:06:29,2,2.362
2139481,01/09/2021 13:07:29,2,2.2196
2139483,01/09/2021 13:08:29,2,2.1724
2139486,01/09/2021 13:10:29,2,2.378
2139488,01/09/2021 13:11:29,3,2.5448
2139490,01/09/2021 13:12:29,3,2.7084
2139492,01/09/2021 13:13:29,3,2.9356
2139494,01/09/2021 13:14:29,3,3.0624
2139496,01/09/2021 13:15:29,3,2.9868
2139499,01/09/2021 13:17:29,3,2.9348
2139501,01/09/2021 13:18:29,3,2.9208
2139503,01/09/2021 13:19:29,3,2.9152
2139505,01/09/2021 13:20:29,3,2.8688
2139507,01/09/2021 13:21:29,3,2.8768
2139509,01/09/2021 13:22:29,3,2.9948
2139512,01/09/2021 13:24:29,3,3.028
2139514,01/09/2021 13:25:29,3,2.7824
2139516,01/09/2021 13:26:29,3,2.6556
2139518,01/09/2021 13:27:29,3,2.626
2139520,01/09/2021 13:28:29,3,2.5336
2139522,01/09/2021 13:29:29,2,2.4812
2139525,01/09/2021 13:31:29,3,2.7468
2139527,01/09/2021 13:32:29,3,3.1044
2139529,01/09/2021 13:33:29,3,3.232
2139531,01/09/2021 13:34:29,3,3.1832
2139533,01/09/2021 13:35:29,3,3.082
2139535,01/09/2021 13:36:29,3,2.856
2139538,01/09/2021 13:38:29,2,2.376
2139540,01/09/2021 13:39:29,2,2.2764
2139542,01/09/2021 13:40:29,2,2.2696
2139544,01/09/2021 13:41:29,2,2.2428
2139546,01/09/2021 13:42:29,2,2.2464
2139548,01/09/2021 13:43:29,2,2.2576
2139551,01/09/2021 13:45:29,2,2.276
2139553,01/09/2021 13:46:29,2,2.306
2139555,01/09/2021 13:47:29,2,2.3184
2139557,01/09/2021 13:48:29,2,2.3212
2139559,01/09/2021 13:49:29,2,2.3172
2139561,01/09/2021 13:50:29,2,2.3172
2139564,01/09/2021 13:52:29,2,2.3508
2139566,01/09/2021 13:53:29,2,2.3952
2139568,01/09/2021 13:54:29,2,2.4324
2139570,01/09/2021 13:55:29,2,2.4512
2139572,01/09/2021 13:56:29,2,2.4872
2139574,01/09/2021 13:57:29,3,2.5544
2139577,01/09/2021 13:59:29,3,2.7556
2139579,01/09/2021 14:00:29,3,2.714
2139581,01/09/2021 14:01:29,3,3.1888
2139583,01/09/2021 14:02:29,3,2.7804
2139585,01/09/2021 14:03:29,3,3.1404
2139587,01/09/2021 14:04:29,3,3.1096
2139590,01/09/2021 14:06:29,3,2.976
2139592,01/09/2021 14:07:29,3,2.9632
2139594,01/09/2021 14:08:29,4,4.3712
2139596,01/09/2021 14:09:29,4,3.9372
2139598,01/09/2021 14:10:29,4,4.4972
2139600,01/09/2021 14:11:29,7,7.0692
2139603,01/09/2021 14:13:29,4,3.9628
2139605,01/09/2021 14:14:29,5,4.5892
2139607,01/09/2021 14:15:29,6,5.7656
2139609,01/09/2021 14:16:29,7,6.7292
2139611,01/09/2021 14:17:29,6,5.6924
2139613,01/09/2021 14:18:29,4,3.7916
2139616,01/09/2021 14:20:29,5,4.852
2139618,01/09/2021 14:21:29,3,3.1936
2139620,01/09/2021 14:22:29,3,3.1956
2139622,01/09/2021 14:23:29,4,4.2908
2139624,01/09/2021 14:24:29,8,7.5212
2139626,01/09/2021 14:25:29,7,7.4232
2139629,01/09/2021 14:27:29,7,7.2892
2139631,01/09/2021 14:28:29,6,6.3276
2139633,01/09/2021 14:29:29,6,6.3964
2139635,01/09/2021 14:30:29,5,4.934
2139637,01/09/2021 14:31:29,7,7.12
2139639,01/09/2021 14:32:30,8,7.6256
2139642,01/09/2021 14:34:29,7,7.114
2139644,01/09/2021 14:35:29,7,6.6008
2139646,01/09/2021 14:36:29,6,6.348
2139648,01/09/2021 14:37:29,7,6.5368
2139650,01/09/2021 14:38:29,7,7.1356
2139652,01/09/2021 14:39:29,6,6.4308
2139655,01/09/2021 14:41:29,5,4.6736
2139657,01/09/2021 14:42:29,7,7.238
2139659,01/09/2021 14:43:29,6,6.2236
2139661,01/09/2021 14:44:29,5,5.1584
2139663,01/09/2021 14:45:29,3,3.1588
2139665,01/09/2021 14:46:29,3,2.764
2139668,01/09/2021 14:48:29,3,2.546
2139670,01/09/2021 14:49:29,3,2.9104
2139672,01/09/2021 14:50:29,3,2.5276
2139674,01/09/2021 14:51:29,2,2.4176
2139676,01/09/2021 14:52:29,2,2.3604
2139678,01/09/2021 14:53:29,2,2.1972
2139681,01/09/2021 14:55:29,2,1.9412
2139683,01/09/2021 14:56:29,2,1.9504
2139685,01/09/2021 14:57:29,2,1.9408
2139687,01/09/2021 14:58:29,2,2.018
2139689,01/09/2021 14:59:29,2,2.2
2139691,01/09/2021 15:00:29,2,2.0684
2139694,01/09/2021 15:02:29,2,2.2112
2139696,01/09/2021 15:03:29,2,2.332
2139698,01/09/2021 15:04:29,2,2.0872
2139700,01/09/2021 15:05:29,1,1.4708
2139702,01/09/2021 15:06:30,1,1.4876
2139704,01/09/2021 15:07:29,2,1.79
2139707,01/09/2021 15:09:29,5,4.884
2139709,01/09/2021 15:10:29,4,4.2432
2139711,01/09/2021 15:11:29,3,3.3628
2139713,01/09/2021 15:12:29,3,3.1248
2139715,01/09/2021 15:13:29,3,2.9936
2139717,01/09/2021 15:14:29,5,4.7744
2139720,01/09/2021 15:16:29,4,3.508
2139722,01/09/2021 15:17:29,5,4.708
2139724,01/09/2021 15:18:29,5,4.672
2139726,01/09/2021 15:19:29,4,3.5404
2139728,01/09/2021 15:20:29,4,3.59
2139730,01/09/2021 15:21:29,2,2.3196
2139733,01/09/2021 15:23:29,4,3.8904
2139735,01/09/2021 15:24:29,3,2.7116
2139737,01/09/2021 15:25:29,2,2.1516
2139739,01/09/2021 15:26:29,2,2.486
2139741,01/09/2021 15:27:29,2,1.966
2139743,01/09/2021 15:28:29,3,2.7812
2139746,01/09/2021 15:30:29,4,4.356
2139748,01/09/2021 15:31:29,4,4.4292
2139750,01/09/2021 15:32:29,4,4.4668
2139752,01/09/2021 15:33:29,4,3.7112
2139754,01/09/2021 15:34:29,2,1.6452
2139756,01/09/2021 15:35:29,1,1.3916
2139759,01/09/2021 15:37:29,1,1.2344
2139761,01/09/2021 15:38:29,1,1.2132
2139763,01/09/2021 15:39:29,1,1.2024
2139765,01/09/2021 15:40:29,1,1.1576
2139767,01/09/2021 15:41:29,1,1.1616
2139769,01/09/2021 15:42:29,1,1.2364
2139772,01/09/2021 15:44:29,1,1.3304
2139774,01/09/2021 15:45:29,1,1.3044
2139776,01/09/2021 15:46:29,2,1.5612
2139778,01/09/2021 15:47:29,2,1.6768
2139780,01/09/2021 15:48:29,2,1.8696
2139782,01/09/2021 15:49:29,1,1.386
2139785,01/09/2021 15:51:29,3,3.1228
2139787,01/09/2021 15:52:29,4,3.6444
2139789,01/09/2021 15:53:29,4,3.6556
2139791,01/09/2021 15:54:29,4,3.6188
2139793,01/09/2021 15:55:29,4,3.544
2139795,01/09/2021 15:56:30,3,3.4724
2139798,01/09/2021 15:58:29,2,2.3036
2139800,01/09/2021 15:59:29,3,2.5892
2139802,01/09/2021 16:00:29,3,3.116
2139804,01/09/2021 16:01:29,2,2.074
2139806,01/09/2021 16:02:29,1,1.026
2139808,01/09/2021 16:03:29,1,0.9696
2139811,01/09/2021 16:05:29,1,1.0768
2139813,01/09/2021 16:06:29,1,0.8728
2139815,01/09/2021 16:07:29,1,0.7588
2139817,01/09/2021 16:08:29,1,0.7072
2139819,01/09/2021 16:09:29,1,0.6844
2139821,01/09/2021 16:10:29,1,0.6976
2139824,01/09/2021 16:12:29,2,1.5268
2139826,01/09/2021 16:13:29,2,1.7388
2139828,01/09/2021 16:14:29,2,2.3844
2139830,01/09/2021 16:15:29,2,1.904
2139832,01/09/2021 16:16:29,2,1.8548
2139834,01/09/2021 16:17:29,3,2.6316
2139837,01/09/2021 16:19:29,3,2.816
2139839,01/09/2021 16:20:29,3,2.9512
2139841,01/09/2021 16:21:29,3,2.962
2139843,01/09/2021 16:22:29,3,2.8232
2139845,01/09/2021 16:23:29,3,2.6496
2139847,01/09/2021 16:24:29,2,2.1204
2139850,01/09/2021 16:26:29,3,2.8604
2139852,01/09/2021 16:27:29,3,2.84
2139854,01/09/2021 16:28:29,3,2.7728
2139856,01/09/2021 16:29:29,3,2.6636
2139858,01/09/2021 16:30:29,2,2.3644
2139860,01/09/2021 16:31:29,2,2.3264
2139863,01/09/2021 16:33:29,2,2.4472
2139865,01/09/2021 16:34:29,2,2.44
2139867,01/09/2021 16:35:29,2,2.4404
2139869,01/09/2021 16:36:29,2,2.3964
2139871,01/09/2021 16:37:29,2,2.45
2139873,01/09/2021 16:38:29,2,2.4304
2139876,01/09/2021 16:40:29,2,2.292
2139878,01/09/2021 16:41:29,2,1.9552
2139880,01/09/2021 16:42:29,2,1.7252
2139882,01/09/2021 16:43:29,2,1.588
2139884,01/09/2021 16:44:29,1,1.4932
2139886,01/09/2021 16:45:29,2,1.522
2139889,01/09/2021 16:47:29,1,1.374
2139891,01/09/2021 16:48:29,1,1.3456
2139893,01/09/2021 16:49:29,1,1.2876
2139895,01/09/2021 16:50:29,1,1.2196
2139897,01/09/2021 16:51:29,1,1.1576
2139899,01/09/2021 16:52:29,1,1.102
2139902,01/09/2021 16:54:29,1,1.0364
2139904,01/09/2021 16:55:29,1,1.0152
2139906,01/09/2021 16:56:29,1,1.0028
2139908,01/09/2021 16:57:29,1,0.998
2139910,01/09/2021 16:58:29,1,1.004
2139912,01/09/2021 16:59:29,1,1.0188
2139915,01/09/2021 17:01:29,1,1.054
2139917,01/09/2021 17:02:29,1,1.0856
2139919,01/09/2021 17:03:29,1,1.1284
2139921,01/09/2021 17:04:29,1,1.1604
2139923,01/09/2021 17:05:29,1,1.1816
2139925,01/09/2021 17:06:29,1,1.2
2139928,01/09/2021 17:08:29,1,1.2256
2139930,01/09/2021 17:09:29,1,1.216
2139932,01/09/2021 17:10:29,1,1.182
2139934,01/09/2021 17:11:29,1,1.1492
2139936,01/09/2021 17:12:29,1,1.1196
2139938,01/09/2021 17:13:29,1,1.0752
2139941,01/09/2021 17:15:29,1,0.9692
2139943,01/09/2021 17:16:29,1,0.9324
2139945,01/09/2021 17:17:29,1,0.9
2139947,01/09/2021 17:18:29,1,0.8696
2139949,01/09/2021 17:19:29,1,0.8368
2139951,01/09/2021 17:20:29,1,0.8108
2139954,01/09/2021 17:22:29,1,0.7748
2139956,01/09/2021 17:23:29,1,0.7612
2139958,01/09/2021 17:24:29,1,0.7492
2139960,01/09/2021 17:25:29,1,0.7364
2139962,01/09/2021 17:26:29,1,0.7216
2139964,01/09/2021 17:27:29,1,0.7052
2139967,01/09/2021 17:29:29,1,0.6692
2139969,01/09/2021 17:30:29,1,0.6488
2139971,01/09/2021 17:31:29,1,0.6244
2139973,01/09/2021 17:32:29,1,0.5932
2139975,01/09/2021 17:33:29,1,0.5568
2139977,01/09/2021 17:34:29,1,0.5132
2139979,01/09/2021 17:35:29,0,0.4688
2139981,01/09/2021 17:36:29,0,0.4332
2139983,01/09/2021 17:37:29,0,0.408
2139985,01/09/2021 17:38:29,0,0.3888
2139987,01/09/2021 17:39:29,0,0.3704
2139989,01/09/2021 17:40:29,0,0.3508
2139991,01/09/2021 17:41:29,0,0.336